Regional Weather Roundup
Issued by NWS

Home | Current Version | Previous Version | Graphics & Text | Print | Product List | Glossary On
Versions: 1 2 3 4 5 6 7 8 9 10 11 12 13 14 15 16 17 18 19 20 21 22 23 24 25 26 27 28 29 30 31 32 33 34 35 36 37 38 39 40 41 42 43 44 45 46 47 48 49 50
000
ASUS43 KLSX 241007
RWRMO

WEATHER SUMMARY FOR MISSOURI
NATIONAL WEATHER SERVICE SPRINGFIELD MO
400 AM CST SAT FEB 24 2018

NOTE: "FAIR" INDICATES FEW OR NO CLOUDS BELOW 12,000 FEET WITH NO
       SIGNIFICANT WEATHER AND/OR OBSTRUCTIONS TO VISIBILITY.
       CURRENT SKY AND/OR WEATHER CONDITIONS ARE NOT AVAILABLE FOR
       CHILLICOTHE AND FARMINGTON.

MOZ001>031-035>038-043-044-053-054-241100-
...NORTHERN AND WESTERN MISSOURI...

CITY           SKY/WX    TMP DP  RH WIND       PRES   REMARKS
KANSAS CTY INT LGT RAIN  34  32  92 NE12      30.01F FOG     WCI  25
KANSAS C DTWN  MIX PCPN  36  33  89 E9        30.00F FOG     WCI  29
LEE`S SUMMIT   CLOUDY    34  34 100 NE12      30.00F FOG     WCI  25
ST JOSEPH      CLOUDY    31  30  96 E10       30.04F FOG     WCI  22
CHILLICOTHE      N/A     32  30  92 NE7       30.08F WCI  26
KIRKSVILLE     FRZ RAIN  31  30  96 NE14      30.08F FOG     WCI  21

$$
MOZ066>068-077>081-088>096-101>105-241100-
...SOUTHWEST MISSOURI...

CITY           SKY/WX    TMP DP  RH WIND       PRES   REMARKS
SPRINGFIELD    RAIN      50  49  96 SE14      29.93F FOG
JOPLIN         CLOUDY    40  40 100 CALM      29.94F FOG

$$
MOZ032>034-039>042-045>050-055>058-069>072-241100-
...CENTRAL MISSOURI...

CITY           SKY/WX    TMP DP  RH WIND       PRES   REMARKS
COLUMBIA       LGT RAIN  37  36  96 NE10      30.03R WCI  30
JEFFERSON CITY CLOUDY    39  37  92 NE7       30.02S
ROLLA          HVY RAIN  42  42 100 E21       29.96F FOG
SEDALIA        MIX PCPN  37  37 100 NE9       30.02F FOG
WHITEMAN AFB   LGT RAIN N/A N/A N/A NE8       29.99F
WARRENSBURG    DRIZZLE   34  34 100 NE8       30.01F WCI  27
OSAGE BEACH    LGT RAIN  40  39  97 N6        29.98R

$$
MOZ051-052-059>065-241100-
...EAST CENTRAL MISSOURI...

CITY           SKY/WX    TMP DP  RH WIND       PRES   REMARKS
ST LOUIS INTL  HVY RAIN  40  39  97 E12       30.09R FOG
SPIRIT OF STL  HVY RAIN  40  40 100 E9        30.05F FOG
ST CHARLES     HVY RAIN  39  38  96 E12       30.07F FOG

$$
MOZ072>076-082>087-097>100-106>115-241100-
...SOUTH CENTRAL AND SOUTHEAST MISSOURI...

CITY           SKY/WX    TMP DP  RH WIND       PRES   REMARKS
CAPE GIRARDEAU CLOUDY    49  47  93 NE13      30.03F
FARMINGTON     LGT RAIN  43  42  97 E10       30.03F
POPLAR BLUFF   LGT RAIN  50  49  96 NE10      29.99F FOG
WEST PLAINS    CLOUDY    48  47  96 VRB5G16   29.97F

$$



USA.gov is the U.S. government's official web portal to all federal, state and local government web resources and services.